F6KPQ-13 Weather Reports


Display with metric or nautical units.
time (UTC)temp
F
wind
direction
speed
MPH
gust
MPH
rain 1hr
in
rain 24hr
in
rain mn
in
humidity
%
barometer
mb
20210124213703 38 229 2.0 4.0 0.00 0.00 0.00 80 1004.0
20210124213203 38 230 2.0 4.0 0.00 0.00 0.00 80 1004.0
20210124212703 39 238 3.0 4.0 0.00 0.00 0.00 80 1004.0
20210124212210 39 233 3.0 5.0 0.00 0.00 0.00 80 1004.0
20210124211703 39 217 3.0 7.0 0.00 0.00 0.00 80 1004.0
20210124211206 39 213 3.0 7.0 0.00 0.00 0.00 80 1004.0
20210124211151 39 214 3.0 7.0 0.00 0.00 0.00 80 1004.0
20210124210704 39 221 3.0 7.0 0.00 0.00 0.00 80 1004.0
20210124210205 39 220 3.0 6.0 0.00 0.00 0.00 80 1004.0
20210124205712 39 216 2.0 6.0 0.00 0.00 0.00 80 1004.0
20210124205653 39 218 3.0 6.0 0.00 0.00 0.00 80 1004.0
20210124205204 39 217 3.0 4.0 0.00 0.00 0.00 80 1004.0
20210124204703 39 224 3.0 5.0 0.00 0.00 0.00 80 1004.0
20210124204205 39 231 3.0 5.0 0.00 0.00 0.00 80 1004.0
20210124203704 39 232 3.0 6.0 0.00 0.00 0.00 79 1004.0
20210124203203 39 233 4.0 8.0 0.00 0.00 0.00 79 1004.0
20210124202702 39 232 4.0 8.0 0.00 0.00 0.00 79 1004.0
20210124202202 39 228 4.0 7.0 0.00 0.00 0.00 79 1004.0
20210124201702 39 225 3.0 7.0 0.00 0.00 0.00 79 1004.0
20210124201203 39 222 3.0 7.0 0.00 0.00 0.00 79 1004.0
20210124200704 40 220 4.0 8.0 0.00 0.00 0.00 79 1003.0
20210124200206 39 216 3.0 8.0 0.00 0.00 0.00 79 1003.0
20210124195706 39 222 3.0 7.0 0.00 0.00 0.00 79 1003.0
20210124195203 39 227 3.0 6.0 0.00 0.00 0.00 79 1003.0
20210124194707 39 218 3.0 6.0 0.00 0.00 0.00 79 1003.0
20210124194204 39 221 3.0 6.0 0.00 0.00 0.00 79 1003.0
20210124193703 39 226 3.0 7.0 0.00 0.00 0.00 79 1003.0
20210124193203 39 226 3.0 7.0 0.00 0.00 0.00 79 1003.0
20210124192703 39 218 2.0 4.0 0.00 0.00 0.00 78 1003.0
20210124192206 39 218 2.0 4.0 0.00 0.00 0.00 78 1003.0
20210124191702 40 225 2.0 4.0 0.00 0.00 0.00 78 1003.0
20210124191203 40 222 3.0 4.0 0.00 0.00 0.00 78 1003.0
20210124190703 40 219 3.0 4.0 0.00 0.00 0.00 78 1003.0
20210124190202 40 220 3.0 5.0 0.00 0.00 0.00 78 1003.0
20210124185705 40 219 3.0 6.0 0.00 0.00 0.00 78 1003.0
20210124185203 40 222 3.0 6.0 0.00 0.00 0.00 78 1002.0
20210124184702 40 225 4.0 8.0 0.00 0.00 0.00 76 1002.0
20210124184202 40 230 4.0 8.0 0.00 0.00 0.00 78 1002.0
20210124184155 40 229 4.0 8.0 0.00 0.00 0.00 78 1003.0
20210124183707 40 234 4.0 9.0 0.00 0.00 0.00 76 1003.0
20210124183210 41 232 5.0 9.0 0.00 0.00 0.00 78 1003.0
20210124182704 40 225 4.0 9.0 0.00 0.00 0.00 78 1003.0
20210124182208 40 217 3.0 7.0 0.00 0.00 0.00 78 1003.0
20210124181704 40 219 3.0 6.0 0.00 0.00 0.00 78 1003.0
20210124181205 41 223 3.0 7.0 0.00 0.00 0.00 78 1003.0
20210124180705 41 220 4.0 8.0 0.00 0.00 0.00 76 1003.0
20210124180239 41 220 4.0 8.0 0.00 0.00 0.00 76 1003.0
20210124175705 41 222 3.0 5.0 0.00 0.00 0.00 76 1003.0
20210124175654 41 223 3.0 5.0 0.00 0.00 0.00 76 1003.0
20210124175206 41 221 3.0 7.0 0.00 0.00 0.00 76 1003.0
20210124174703 41 214 4.0 7.0 0.00 0.00 0.00 75 1003.0
20210124174204 41 211 4.0 7.0 0.00 0.00 0.00 74 1003.0
20210124174151 42 213 4.0 7.0 0.00 0.00 0.00 74 1003.0